Home > Weather > Kenora > Past weeks

Flag for Canada Weather for the Past 2 Weeks in Kenora, Ontario, Canada

Now
1 °F

Light snow. Mostly cloudy.


Feels Like: -18 °F
Forecast: N/A
Wind: 15 mph from North

Location: Kenora

Current Time: Feb 8, 2016 at 4:21:04 PM

Latest Report: Feb 8, 2016 at 3:00 PM


Visibility: 6 mi

Pressure: 30.16 "Hg

Humidity: 78%

Dew point: -4 °F

Location of KenoraLocation

Historic Weather in Kenora — Graph

°F

Kenora Temperature Yesterday

Maximum temperature yesterday: 30 °F (at 4:00 AM)
Minimum temperature yesterday: 3 °F (at 11:00 PM)
Average temperature yesterday: 21 °F

High & Low Weather Summary for the Past Weeks

 TemperatureHumidityPressure
High34 °F (Jan 30, 11:00 AM)100% (Jan 25, 1:00 AM)30.31 "Hg (Jan 25, 1:00 AM)
Low-2 °F (Feb 3, 7:00 AM)57% (Feb 3, 2:00 PM)29.19 "Hg (Jan 30, 2:00 AM)
Average16 °F85%29.87 "Hg
* Reported Jan 24 2:00 PM — Feb 8 2:00 PM, Kenora, Weather by CustomWeather, © 2016

Note: Actual official high and low records may vary slightly from our data, if they occured in-between our weather recording intervals... More about our weather records

Advertising

Kenora Weather History for the Previous 24 Hours

 ConditionsComfort  
Time TempWeatherWind HumidityBarometerVisibility
2:00 PM
Mon, Feb 8
1 °FLight snow. Mostly cloudy.16 mph78%30.14 "Hg8 mi
1:00 PM1 °FLight snow. Overcast.14 mph78%30.14 "Hg6 mi
12:00 PM1 °FLight snow. Partly sunny.14 mph78%30.14 "Hg10 mi
11:00 AM0 °FLight snow. Overcast.18 mph78%30.14 "Hg8 mi
10:00 AM0 °FLight snow. Mostly cloudy.14 mph78%30.14 "Hg10 mi
9:00 AM0 °FLight snow. Low clouds.13 mph78%30.13 "Hg10 mi
8:00 AM0 °FLight snow. Broken clouds.16 mph78%30.10 "Hg12 mi
7:00 AM0 °FLight snow. More clouds than sun.17 mph78%30.09 "Hg12 mi
6:00 AM0 °FLight snow. Mostly cloudy.15 mph78%30.06 "Hg8 mi
5:00 AM0 °FLight snow. Overcast.14 mph84%30.05 "Hg8 mi
4:00 AM1 °FLight snow. Mostly cloudy.16 mph78%30.03 "Hg8 mi
3:00 AM1 °FLight snow. Mostly cloudy.13 mph85%30.00 "Hg5 mi
2:00 AM3 °FLight snow. Mostly cloudy.16 mph85%29.98 "Hg5 mi
1:00 AM3 °FLight snow. Overcast.14 mph85%29.96 "Hg2 mi
12:00 AM3 °FLight snow. Overcast.14 mph85%29.96 "Hg2 mi
11:00 PM
Sun, Feb 7
3 °FLight snow. Mostly cloudy.15 mph85%29.93 "Hg2 mi
10:00 PM5 °FLight snow. Mostly cloudy.16 mph78%29.91 "Hg5 mi
9:00 PM7 °FLight snow. Overcast.17 mph78%29.89 "Hg1 mi
8:00 PM10 °FLight snow. Overcast.16 mph79%29.87 "Hg1 mi
7:00 PM12 °FLight snow. Mostly cloudy.9 mph85%29.84 "Hg1 mi
6:00 PM14 °FLight snow. Mostly cloudy.12 mph85%29.81 "Hg1 mi
5:00 PM14 °FLight snow. Ice fog.13 mph85%29.76 "Hg1 mi
4:46 PM14 °FLight snow. Ice fog.18 mph85%29.75 "Hg1 mi
4:00 PM18 °FLight snow. More clouds than sun.13 mph86%29.71 "Hg2 mi
Weather by CustomWeather, © 2016

See weather overviewHow to use our weather pages